Santa Rosa, CA

3:44 PM PDT on May 25, 2017 (GMT -0700)
Sonoma County

Weather History for KSTS - March, 2015

Change the Weather History Date:

Wednesday, March 11, 2015

  Actual Average Record
Temperature  
Mean Temperature 56 °F 53 °F  
Max Temperature 64 °F 64 °F 82 °F (1934)
Min Temperature 47 °F 42 °F 30 °F (2009)
Degree Days  
Heating Degree Days 9    
Month to date heating degree days 114  
Since 1 July heating degree days 1570  
Cooling Degree Days 0    
Month to date cooling degree days 0  
Year to date cooling degree days 0  
Growing Degree Days 7 (Base 50)    
Moisture  
Dew Point 51 °F    
Average Humidity 78    
Maximum Humidity 96    
Minimum Humidity 60    
Precipitation  
Precipitation 0.02 in 0.17 in 1.28 in (2016)
Month to date precipitation 0.02 2.33  
Year to date precipitation 4.34 15.78  
Sea Level Pressure  
Sea Level Pressure 30.12 in    
Wind  
Wind Speed 4 mph (SW)    
Max Wind Speed 10 mph    
Max Gust Speed 14 mph    
Visibility 9 miles    
Events Rain    
T = Trace of Precipitation, MM = Missing Value Source: NWS Daily Summary

Daily Weather History Graph

Daily Weather History Graph

Search for Another Location

Airport or City:

Trip Planner

Search our weather history database for the weather conditions in past years. The results will help you decide how hot, cold, wet, or windy it might be!

Date:

Astronomy

Mar. 11, 2015 Rise Set
Actual Time 7:28 AM PDT 7:14 PM PDT
Civil Twilight 7:02 AM PDT 7:40 PM PDT
Nautical Twilight 6:31 AM PDT 8:11 PM PDT
Astronomical Twilight 6:00 AM PDT 8:42 PM PDT
Moon 12:04 AM PDT (3/11) 10:44 AM PDT (3/11)
Length of Visible Light 12h 38m
Length of Day
11h 45m
Waning Gibbous, 70% of the Moon is Illuminated
Mar 11
Waning Gibbous
Mar 13
Last Quarter
Mar 20
New
Mar 27
First Quarter
Apr 4
Full

Hourly Weather History & Observations

Time (PDT) Temp. Dew Point Humidity Pressure Visibility Wind Dir Wind Speed Gust Speed Precip Events Conditions
12:53 AM 52.0 °F 48.9 °F 89% 30.01 in 10.0 mi Calm Calm - N/A   Mostly Cloudy
1:53 AM 52.0 °F 48.9 °F 89% 29.99 in 10.0 mi ENE 5.8 mph - 0.00 in Rain Light Rain
2:53 AM 52.0 °F 50.0 °F 93% 30.01 in 10.0 mi Calm Calm - 0.00 in Rain Light Rain
3:53 AM 51.1 °F 50.0 °F 96% 30.00 in 7.0 mi NNW 4.6 mph - 0.02 in Rain Light Rain
4:53 AM 51.1 °F 50.0 °F 96% 29.98 in 9.0 mi West 4.6 mph - 0.00 in   Overcast
5:53 AM 51.1 °F 50.0 °F 96% 30.01 in 9.0 mi Calm Calm - N/A   Overcast
6:53 AM 52.0 °F 50.0 °F 93% 30.04 in 9.0 mi ENE 5.8 mph - N/A   Overcast
7:53 AM 52.0 °F 50.0 °F 93% 30.05 in 10.0 mi West 3.5 mph - N/A   Overcast
8:53 AM 53.1 °F 52.0 °F 96% 30.08 in 7.0 mi Calm Calm - N/A   Mostly Cloudy
9:53 AM 55.9 °F 53.1 °F 90% 30.10 in 7.0 mi Calm Calm - N/A   Mostly Cloudy
10:30 AM 57.2 °F 51.8 °F 82% 30.12 in 10.0 mi SSW 4.6 mph - N/A   Mostly Cloudy
10:53 AM 59.0 °F 52.0 °F 78% 30.11 in 10.0 mi SSE 5.8 mph - N/A   Mostly Cloudy
11:53 AM 60.1 °F 51.1 °F 72% 30.13 in 10.0 mi SW 4.6 mph - N/A   Overcast
12:53 PM 61.0 °F 50.0 °F 67% 30.13 in 10.0 mi South 6.9 mph - N/A   Overcast
1:53 PM 62.1 °F 48.0 °F 60% 30.14 in 7.0 mi WSW 8.1 mph - N/A   Mostly Cloudy
2:53 PM 62.1 °F 50.0 °F 65% 30.13 in 10.0 mi SW 5.8 mph - N/A   Mostly Cloudy
3:53 PM 63.0 °F 48.9 °F 60% 30.13 in 10.0 mi WSW 4.6 mph - N/A   Mostly Cloudy
4:53 PM 63.0 °F 51.1 °F 65% 30.13 in 10.0 mi South 8.1 mph - N/A   Overcast
5:53 PM 62.1 °F 52.0 °F 70% 30.14 in 10.0 mi SW 5.8 mph - N/A   Overcast
6:53 PM 60.1 °F 51.1 °F 72% 30.16 in 10.0 mi SSW 3.5 mph - N/A   Overcast
7:53 PM 57.9 °F 52.0 °F 81% 30.18 in 10.0 mi SSW 4.6 mph - N/A   Clear
8:53 PM 55.0 °F 51.1 °F 86% 30.20 in 10.0 mi Calm Calm - N/A   Scattered Clouds
9:00 PM 55.4 °F 51.8 °F 88% 30.22 in 10.0 mi Calm Calm - N/A   Mostly Cloudy
9:11 PM 55.4 °F 51.8 °F 88% 30.22 in 10.0 mi Calm Calm - N/A   Scattered Clouds
9:53 PM 53.1 °F 51.1 °F 93% 30.22 in 10.0 mi Calm Calm - N/A   Clear
10:53 PM 51.1 °F 50.0 °F 96% 30.23 in 10.0 mi Calm Calm - N/A   Clear
11:53 PM 50.0 °F 48.9 °F 96% 30.25 in 9.0 mi North 3.5 mph - N/A   Clear